| time (UTC) | temp F | wind direction | speed knots | gust knots | rain 1hr in | rain 24hr in | rain mn in | humidity % | barometer mb |
| 20260503211512 | 76 | 332 | 0.0 | 5.2 | 0.00 | 0.00 | 0.00 | 45 | 1013.2 |
| 20260503211004 | 75 | 287 | 0.9 | 5.2 | 0.00 | 0.00 | 0.00 | 45 | 1013.3 |
| 20260503210505 | 76 | 5 | 0.9 | 1.7 | 0.00 | 0.00 | 0.00 | 46 | 1013.2 |
| 20260503210014 | 75 | 277 | 0.9 | 1.7 | 0.00 | 0.00 | 0.00 | 44 | 1013.3 |
| 20260503205506 | 75 | 293 | 0.9 | 5.2 | 0.00 | 0.00 | 0.00 | 45 | 1013.4 |
| 20260503205007 | 74 | 311 | 1.7 | 5.2 | 0.00 | 0.00 | 0.00 | 44 | 1013.4 |
| 20260503204512 | 75 | 200 | 0.9 | 3.5 | 0.00 | 0.00 | 0.00 | 46 | 1013.5 |
| 20260503204008 | 74 | 30 | 0.9 | 4.3 | 0.00 | 0.00 | 0.00 | 46 | 1013.7 |
| 20260503203507 | 74 | 292 | 0.9 | 4.3 | 0.00 | 0.00 | 0.00 | 45 | 1013.8 |
| 20260503203016 | 73 | 271 | 0.9 | 2.6 | 0.00 | 0.00 | 0.00 | 47 | 1013.8 |
| 20260503202507 | 73 | 352 | 0.9 | 2.6 | 0.00 | 0.00 | 0.00 | 48 | 1013.8 |
| 20260503202008 | 73 | 315 | 0.9 | 5.2 | 0.00 | 0.00 | 0.00 | 47 | 1013.8 |
| 20260503201512 | 73 | 287 | 1.7 | 5.2 | 0.00 | 0.00 | 0.00 | 47 | 1014.0 |
| 20260503201004 | 73 | 5 | 0.9 | 2.6 | 0.00 | 0.00 | 0.00 | 50 | 1014.0 |
| 20260503200509 | 73 | 275 | 0.9 | 2.6 | 0.00 | 0.00 | 0.00 | 47 | 1014.1 |
| 20260503200012 | 74 | 272 | 0.9 | 3.5 | 0.00 | 0.00 | 0.00 | 48 | 1014.1 |
| 20260503195508 | 74 | 306 | 0.9 | 4.3 | 0.00 | 0.00 | 0.00 | 47 | 1014.2 |
| 20260503195007 | 73 | 295 | 1.7 | 4.3 | 0.00 | 0.00 | 0.00 | 47 | 1014.3 |
| 20260503194511 | 73 | 53 | 0.9 | 3.5 | 0.00 | 0.00 | 0.00 | 50 | 1014.3 |
| 20260503194004 | 73 | 277 | 0.9 | 2.6 | 0.00 | 0.00 | 0.00 | 50 | 1014.4 |
| 20260503193504 | 73 | 34 | 0.9 | 3.5 | 0.00 | 0.00 | 0.00 | 52 | 1014.4 |
| 20260503193014 | 73 | 305 | 0.9 | 3.5 | 0.00 | 0.00 | 0.00 | 51 | 1014.5 |
| 20260503192508 | 72 | 291 | 1.7 | 2.6 | 0.00 | 0.00 | 0.00 | 52 | 1014.6 |
| 20260503192011 | 73 | 304 | 0.9 | 2.6 | 0.00 | 0.00 | 0.00 | 52 | 1014.6 |
| 20260503191513 | 73 | 277 | 0.9 | 3.5 | 0.00 | 0.00 | 0.00 | 54 | 1014.7 |
| 20260503191009 | 72 | 109 | 0.9 | 4.3 | 0.00 | 0.00 | 0.00 | 52 | 1014.6 |
| 20260503190504 | 72 | 293 | 1.7 | 5.2 | 0.00 | 0.00 | 0.00 | 49 | 1014.7 |
| 20260503190017 | 72 | 202 | 1.7 | 5.2 | 0.00 | 0.00 | 0.00 | 50 | 1014.8 |
| 20260503185504 | 71 | 296 | 1.7 | 3.5 | 0.00 | 0.00 | 0.00 | 52 | 1014.8 |
| 20260503185008 | 71 | 257 | 0.9 | 3.5 | 0.00 | 0.00 | 0.00 | 49 | 1014.8 |
| 20260503184517 | 71 | 196 | 0.9 | 6.1 | 0.00 | 0.00 | 0.00 | 50 | 1014.8 |
| 20260503184009 | 71 | 300 | 1.7 | 6.1 | 0.00 | 0.00 | 0.00 | 52 | 1014.9 |
| 20260503183507 | 72 | 286 | 0.9 | 1.7 | 0.00 | 0.00 | 0.00 | 53 | 1014.8 |
| 20260503183017 | 72 | 201 | 0.0 | 3.5 | 0.00 | 0.00 | 0.00 | 57 | 1014.8 |
| 20260503182509 | 71 | 17 | 1.7 | 3.5 | 0.00 | 0.00 | 0.00 | 53 | 1014.8 |
| 20260503182009 | 70 | 164 | 0.0 | 2.6 | 0.00 | 0.00 | 0.00 | 55 | 1014.8 |
| 20260503181514 | 70 | 81 | 0.9 | 2.6 | 0.00 | 0.00 | 0.00 | 57 | 1014.9 |
| 20260503181004 | 69 | 78 | 0.0 | 4.3 | 0.00 | 0.00 | 0.00 | 56 | 1015.0 |
| 20260503180504 | 69 | 90 | 0.9 | 4.3 | 0.00 | 0.00 | 0.00 | 61 | 1015.0 |
| 20260503180016 | 69 | 77 | 1.7 | 3.5 | 0.00 | 0.00 | 0.00 | 57 | 1015.0 |
| 20260503175505 | 68 | 30 | 0.9 | 2.6 | 0.00 | 0.00 | 0.00 | 60 | 1014.9 |
| 20260503175006 | 68 | 60 | 0.9 | 2.6 | 0.00 | 0.00 | 0.00 | 60 | 1015.0 |
| 20260503174515 | 66 | 275 | 0.9 | 2.6 | 0.00 | 0.00 | 0.00 | 63 | 1015.1 |
| 20260503174007 | 66 | 277 | 1.7 | 1.7 | 0.00 | 0.00 | 0.00 | 60 | 1015.2 |
| 20260503173507 | 67 | 301 | 0.9 | 1.7 | 0.00 | 0.00 | 0.00 | 62 | 1015.2 |
| 20260503173016 | 67 | 351 | 0.0 | 1.7 | 0.00 | 0.00 | 0.00 | 62 | 1015.2 |
| 20260503172510 | 66 | 22 | 0.0 | 1.7 | 0.00 | 0.00 | 0.00 | 63 | 1015.1 |
| 20260503172008 | 65 | 28 | 0.9 | 1.7 | 0.00 | 0.00 | 0.00 | 63 | 1015.1 |
| 20260503171514 | 65 | 22 | 0.9 | 1.7 | 0.00 | 0.00 | 0.00 | 64 | 1015.1 |
| 20260503171008 | 64 | 5 | 0.0 | 1.7 | 0.00 | 0.00 | 0.00 | 66 | 1015.1 |
| 20260503170506 | 63 | 5 | 0.9 | 1.7 | 0.00 | 0.00 | 0.00 | 66 | 1015.2 |
| 20260503151009 | 61 | 297 | 0.0 | 0.0 | 0.00 | 0.00 | 0.00 | 67 | 1014.8 |
| 20260503150503 | 61 | 297 | 0.0 | 0.0 | 0.00 | 0.00 | 0.00 | 67 | 1014.7 |
| 20260503131009 | 60 | 39 | 1.7 | 3.5 | 0.00 | 0.00 | 0.00 | 66 | 1014.4 |
| 20260503130509 | 59 | 52 | 1.7 | 2.6 | 0.00 | 0.00 | 0.00 | 64 | 1014.5 |
| 20260503110507 | 61 | 83 | 0.0 | 0.0 | 0.00 | 0.00 | 0.00 | 71 | 1014.9 |
| 20260503090510 | 61 | 15 | 0.0 | 0.0 | 0.00 | 0.00 | 0.00 | 64 | 1015.3 |
| 20260503081525 | 62 | 15 | 0.0 | 1.7 | 0.00 | 0.00 | 0.00 | 61 | 1015.4 |
| 20260503081012 | 62 | 15 | 0.0 | 1.7 | 0.00 | 0.00 | 0.00 | 61 | 1015.4 |
| 20260503080508 | 62 | 15 | 0.0 | 1.7 | 0.00 | 0.00 | 0.00 | 60 | 1015.4 |
| 20260503072509 | 62 | 33 | 0.9 | 1.7 | 0.00 | 0.00 | 0.00 | 58 | 1015.4 |
| 20260503072010 | 63 | 40 | 0.0 | 1.7 | 0.00 | 0.00 | 0.00 | 57 | 1015.3 |
| 20260503071522 | 61 | 41 | 0.0 | 1.7 | 0.00 | 0.00 | 0.00 | 58 | 1015.4 |
| 20260503071009 | 61 | 54 | 0.0 | 1.7 | 0.00 | 0.00 | 0.00 | 59 | 1015.4 |
| 20260503070503 | 61 | 58 | 0.9 | 1.7 | 0.00 | 0.00 | 0.00 | 57 | 1015.4 |
| 20260503054511 | 62 | 12 | 2.6 | 6.1 | 0.00 | 0.00 | 0.00 | 52 | 1015.1 |
| 20260503054004 | 62 | 19 | 2.6 | 6.1 | 0.00 | 0.00 | 0.00 | 52 | 1015.0 |
| 20260503053016 | 63 | 30 | 2.6 | 5.2 | 0.00 | 0.00 | 0.00 | 51 | 1015.2 |
| 20260503052010 | 62 | 36 | 2.6 | 5.2 | 0.00 | 0.00 | 0.00 | 51 | 1015.2 |
| 20260503051518 | 63 | 49 | 2.6 | 7.0 | 0.00 | 0.00 | 0.00 | 50 | 1015.1 |
| 20260503051009 | 63 | 44 | 2.6 | 7.0 | 0.00 | 0.00 | 0.00 | 50 | 1015.1 |
| 20260503050508 | 63 | 56 | 1.7 | 5.2 | 0.00 | 0.00 | 0.00 | 52 | 1015.2 |
| 20260503050034 | 63 | 28 | 1.7 | 4.3 | 0.00 | 0.00 | 0.00 | 52 | 1015.2 |
| 20260503045512 | 63 | 13 | 1.7 | 4.3 | 0.00 | 0.00 | 0.00 | 51 | 1015.2 |
| 20260503045013 | 64 | 40 | 1.7 | 4.3 | 0.00 | 0.00 | 0.00 | 54 | 1015.1 |
| 20260503044525 | 64 | 5 | 1.7 | 5.2 | 0.00 | 0.00 | 0.00 | 55 | 1015.1 |
| 20260503044004 | 64 | 13 | 1.7 | 5.2 | 0.00 | 0.00 | 0.00 | 56 | 1015.0 |
| 20260503043504 | 64 | 35 | 0.9 | 6.1 | 0.00 | 0.00 | 0.00 | 56 | 1015.0 |
| 20260503043014 | 64 | 263 | 2.6 | 6.1 | 0.00 | 0.00 | 0.00 | 55 | 1014.9 |
| 20260503042006 | 64 | 276 | 1.7 | 6.1 | 0.00 | 0.00 | 0.00 | 55 | 1014.7 |
| 20260503041518 | 65 | 350 | 0.9 | 11.3 | 0.00 | 0.00 | 0.00 | 55 | 1014.7 |
| 20260503041008 | 65 | 288 | 1.7 | 11.3 | 0.00 | 0.00 | 0.00 | 54 | 1014.7 |
| 20260503040024 | 65 | 331 | 1.7 | 7.0 | 0.00 | 0.00 | 0.00 | 56 | 1014.6 |
| 20260503035508 | 64 | 51 | 2.6 | 7.0 | 0.00 | 0.00 | 0.00 | 56 | 1014.5 |
| 20260503035010 | 64 | 299 | 1.7 | 7.0 | 0.00 | 0.00 | 0.00 | 57 | 1014.5 |
| 20260503034524 | 64 | 247 | 1.7 | 7.0 | 0.00 | 0.00 | 0.00 | 59 | 1014.3 |
| 20260503034010 | 64 | 281 | 1.7 | 7.0 | 0.00 | 0.00 | 0.00 | 59 | 1014.3 |
| 20260503033508 | 64 | 28 | 1.7 | 6.1 | 0.00 | 0.00 | 0.00 | 60 | 1014.2 |
| 20260503033011 | 64 | 298 | 1.7 | 6.1 | 0.00 | 0.00 | 0.00 | 61 | 1014.2 |
| 20260503032005 | 64 | 9 | 1.7 | 8.7 | 0.00 | 0.00 | 0.00 | 61 | 1014.0 |
| 20260503031516 | 64 | 39 | 2.6 | 8.7 | 0.00 | 0.00 | 0.00 | 61 | 1014.0 |
| 20260503031006 | 65 | 241 | 0.9 | 2.6 | 0.00 | 0.00 | 0.00 | 61 | 1013.9 |
| 20260503030024 | 65 | 47 | 0.9 | 5.2 | 0.00 | 0.00 | 0.00 | 1013.8 | |
| 20260503024010 | 66 | 285 | 1.7 | 5.2 | 0.00 | 0.00 | 0.00 | 59 | 1013.7 |
| 20260503023510 | 67 | 304 | 0.9 | 5.2 | 0.00 | 0.00 | 0.00 | 59 | 1013.7 |
| 20260503023024 | 67 | 292 | 0.9 | 3.5 | 0.00 | 0.00 | 0.00 | 59 | 1013.7 |
| 20260503022507 | 67 | 302 | 1.7 | 3.5 | 0.00 | 0.00 | 0.00 | 59 | 1013.7 |
| 20260503022012 | 67 | 310 | 0.9 | 3.5 | 0.00 | 0.00 | 0.00 | 59 | 1013.6 |
| 20260503021520 | 68 | 296 | 0.9 | 2.6 | 0.00 | 0.00 | 0.00 | 60 | 1013.6 |
| 20260503020506 | 68 | 275 | 0.9 | 2.6 | 0.00 | 0.00 | 0.00 | 59 | 1013.7 |
| 20260503020022 | 68 | 21 | 1.7 | 3.5 | 0.00 | 0.00 | 0.00 | 58 | 1013.8 |
| 20260503015006 | 68 | 324 | 0.9 | 2.6 | 0.00 | 0.00 | 0.00 | 58 | 1013.9 |
| 20260503014522 | 69 | 285 | 0.9 | 2.6 | 0.00 | 0.00 | 0.00 | 58 | 1014.0 |
| 20260503014009 | 69 | 352 | 0.9 | 3.5 | 0.00 | 0.00 | 0.00 | 58 | 1014.0 |
| 20260503013509 | 69 | 5 | 0.9 | 3.5 | 0.00 | 0.00 | 0.00 | 58 | 1014.1 |
| 20260503012511 | 69 | 313 | 0.9 | 3.5 | 0.00 | 0.00 | 0.00 | 57 | 1014.2 |
| 20260503012012 | 69 | 325 | 0.9 | 3.5 | 0.00 | 0.00 | 0.00 | 57 | 1014.1 |
| 20260503011524 | 69 | 5 | 0.9 | 2.6 | 0.00 | 0.00 | 0.00 | 57 | 1014.1 |
| 20260503011010 | 69 | 313 | 0.9 | 2.6 | 0.00 | 0.00 | 0.00 | 56 | 1014.1 |
| 20260503010508 | 69 | 188 | 0.9 | 2.6 | 0.00 | 0.00 | 0.00 | 55 | 1014.0 |
| 20260503010022 | 70 | 17 | 0.9 | 2.6 | 0.00 | 0.00 | 0.00 | 56 | 1013.9 |
| 20260503005509 | 70 | 17 | 0.9 | 2.6 | 0.00 | 0.00 | 0.00 | 55 | 1014.0 |
| 20260503004013 | 70 | 335 | 0.9 | 2.6 | 0.00 | 0.00 | 0.00 | 56 | 1014.1 |
| 20260503002508 | 70 | 332 | 0.9 | 3.5 | 0.00 | 0.00 | 0.00 | 56 | 1014.2 |
| 20260503001010 | 70 | 346 | 0.9 | 2.6 | 0.00 | 0.00 | 0.00 | 56 | 1014.2 |
| 20260503000510 | 70 | 313 | 0.9 | 5.2 | 0.00 | 0.00 | 0.00 | 56 | 1014.3 |
| 20260503000024 | 70 | 24 | 0.9 | 5.2 | 0.00 | 0.00 | 0.00 | 59 | 1014.3 |
| 20260502235007 | 70 | 294 | 0.9 | 2.6 | 0.00 | 0.00 | 0.00 | 57 | 1014.3 |
| 20260502233509 | 70 | 311 | 0.9 | 2.6 | 0.00 | 0.00 | 0.00 | 56 | 1014.5 |
| 20260502232513 | 70 | 327 | 0.9 | 2.6 | 0.00 | 0.00 | 0.00 | 60 | 1014.7 |
| 20260502232012 | 70 | 230 | 0.9 | 3.5 | 0.00 | 0.00 | 0.00 | 58 | 1014.9 |
| 20260502231526 | 70 | 327 | 0.9 | 3.5 | 0.00 | 0.00 | 0.00 | 58 | 1014.6 |
| 20260502231010 | 70 | 284 | 0.9 | 4.3 | 0.00 | 0.00 | 0.00 | 59 | 1014.9 |
| 20260502230509 | 70 | 319 | 1.7 | 4.3 | 0.00 | 0.00 | 0.00 | 60 | 1014.9 |
| 20260502230033 | 70 | 268 | 1.7 | 3.5 | 0.00 | 0.00 | 0.00 | 60 | 1015.1 |
| 20260502225508 | 70 | 5 | 0.9 | 4.3 | 0.00 | 0.00 | 0.00 | 62 | 1015.0 |
| 20260502225016 | 69 | 274 | 1.7 | 4.3 | 0.00 | 0.00 | 0.00 | 59 | 1015.1 |
| 20260502224517 | 70 | 246 | 0.9 | 7.8 | 0.00 | 0.00 | 0.00 | 60 | 1015.1 |
| 20260502224008 | 69 | 11 | 2.6 | 7.8 | 0.00 | 0.00 | 0.00 | 59 | 1015.2 |
| 20260502223508 | 69 | 294 | 0.9 | 4.3 | 0.00 | 0.00 | 0.00 | 60 | 1015.2 |
| 20260502223020 | 70 | 34 | 1.7 | 4.3 | 0.00 | 0.00 | 0.00 | 59 | 1015.3 |
| 20260502222510 | 69 | 310 | 1.7 | 3.5 | 0.00 | 0.00 | 0.00 | 61 | 1015.3 |
| 20260502222011 | 69 | 312 | 1.7 | 3.5 | 0.00 | 0.00 | 0.00 | 58 | 1015.4 |
| 20260502221523 | 69 | 50 | 1.7 | 3.5 | 0.00 | 0.00 | 0.00 | 59 | 1015.4 |
| 20260502221011 | 69 | 69 | 1.7 | 3.5 | 0.00 | 0.00 | 0.00 | 60 | 1015.5 |
| 20260502215008 | 69 | 296 | 0.9 | 3.5 | 0.00 | 0.00 | 0.00 | 61 | 1015.5 |
| 20260502213020 | 68 | 311 | 0.9 | 5.2 | 0.00 | 0.00 | 0.00 | 61 | 1015.7 |
| 20260502212511 | 68 | 246 | 1.7 | 4.3 | 0.00 | 0.00 | 0.00 | 60 | 1015.8 |
| 20260502212008 | 68 | 302 | 1.7 | 3.5 | 0.00 | 0.00 | 0.00 | 61 | 1015.9 |